Wind_Speed
30 29 29 29 28 29 30 29 29 28 28 28 29 29 30 31 31 32 33 34 35 35 35 36 37 38 39 40 40 41 43 45 46 46 47 48 48 50 51 51 51 51 52 52
29 29 29 29 28 29 29 29 29 29 29 29 30 30 31 32 32 32 33 34 35 35 36 36 37 37 38 38 39 40 42 44 45 46 46 47 48 49 50 51 52 52 52 53
29 29 29 29 27 27 28 28 28 29 28 29 30 30 31 31 32 32 33 35 36 36 36 35 36 37 37 38 39 39 39 41 44 46 46 47 48 49 50 51 52 52 52 52
29 29 29 27 26 27 28 28 28 29 29 29 30 31 31 32 32 32 33 34 35 36 36 36 35 36 37 37 38 39 39 40 42 44 45 46 47 48 49 50 51 51 52 52
29 30 30 28 27 28 28 29 29 29 29 29 30 31 31 32 33 32 32 32 33 35 36 36 36 36 36 37 38 39 39 40 40 42 43 44 45 46 47 47 49 49 49 50
30 31 32 29 29 29 29 29 28 30 30 30 31 31 31 31 32 31 32 32 32 33 34 36 36 36 36 37 37 38 39 40 40 41 42 42 43 44 44 45 47 48 49 49
31 32 32 31 30 30 30 30 29 30 30 31 31 31 31 31 31 32 32 32 32 32 33 34 35 36 36 36 37 38 39 39 40 42 42 41 42 43 43 44 45 46 47 48
31 32 32 31 31 30 30 30 30 30 30 31 31 31 31 31 31 31 31 31 31 31 32 33 34 35 36 35 36 37 38 38 39 40 42 42 42 43 43 44 44 44 45 46
30 31 31 31 31 31 31 32 32 31 31 31 31 31 31 31 31 30 30 29 30 30 31 32 33 33 35 35 36 36 37 38 38 39 41 42 42 43 43 43 43 43 44 44
31 30 30 30 30 31 31 32 32 32 32 31 32 32 31 31 31 31 30 29 29 30 30 30 31 32 33 34 35 36 36 37 38 38 40 40 41 42 43 43 43 43 44 44
30 29 30 30 31 31 31 31 31 31 31 32 32 31 31 31 31 31 31 30 30 30 30 29 30 30 31 31 32 34 35 35 36 38 38 39 40 40 41 42 43 43 44 44
29 29 30 30 31 31 31 31 31 31 31 31 31 31 31 30 30 31 31 31 31 31 30 29 28 28 29 29 30 30 32 33 34 35 37 38 38 39 40 41 41 42 42 42
29 29 30 30 30 30 30 31 31 31 31 30 30 29 29 30 30 30 31 31 31 30 29 28 28 28 28 28 28 29 30 31 32 33 34 36 37 38 39 39 39 40 40 40
29 29 29 29 29 30 30 30 30 29 29 29 28 29 29 29 29 29 30 30 29 29 28 27 28 28 28 28 28 28 29 30 30 31 33 34 35 36 37 38 38 39 39 39
28 28 28 29 29 29 29 29 29 28 27 27 27 27 27 28 28 28 28 28 28 27 27 27 27 28 28 27 27 28 28 29 29 30 31 32 33 34 35 37 38 39 39 40
26 27 28 28 28 28 28 28 27 27 27 27 27 27 27 27 27 27 26 26 26 26 26 26 27 27 27 26 26 27 27 28 29 29 29 30 31 32 34 35 36 37 37 38
26 26 27 28 28 28 28 27 27 27 27 27 27 27 27 27 26 26 26 25 25 26 26 26 26 26 26 26 25 26 26 27 27 28 29 29 30 31 31 32 33 34 35 36
27 27 28 28 28 28 28 28 27 27 27 27 27 27 26 26 26 25 25 25 25 25 25 25 25 26 26 25 25 25 25 25 26 27 28 28 29 30 31 31 31 32 33 34
27 27 28 28 28 27 27 26 26 26 26 26 26 26 26 26 25 25 25 25 25 25 25 25 25 25 25 25 25 25 25 26 27 27 28 28 29 29 30 30 30 31 32 32
26 27 27 27 27 26 26 26 26 26 26 26 26 26 25 25 25 25 24 25 25 25 25 25 25 25 25 24 25 25 26 26 27 27 28 28 29 29 29 30 30 30 30 30
26 26 26 26 26 26 26 25 25 26 26 26 25 25 25 25 25 25 24 25 25 25 25 25 25 24 24 24 25 26 26 27 28 28 28 29 29 28 29 29 30 30 29 29
25 25 26 26 26 26 25 26 26 26 26 26 26 26 25 25 25 25 25 25 25 25 24 24 24 24 25 25 26 26 27 28 28 29 29 29 29 29 29 29 29 29 29 29
25 25 25 25 25 25 26 26 26 26 26 26 26 26 26 26 26 26 25 26 25 25 24 24 25 26 26 26 27 28 28 28 28 29 29 29 29 29 29 29 29 29 29 29
25 25 25 25 25 25 26 26 26 26 25 25 25 25 25 25 25 25 25 25 25 25 25 26 27 27 28 28 28 28 28 28 28 28 28 29 29 29 29 30 29 30 30 30
24 24 24 24 25 25 26 26 26 26 25 25 25 25 25 24 24 24 25 25 26 26 27 28 28 28 29 29 28 29 29 28 28 28 28 29 29 29 29 29 29 29 29 30
24 24 24 25 25 25 25 26 25 25 25 25 25 24 24 24 25 25 25 26 27 28 28 28 29 29 29 29 29 29 28 28 29 29 29 29 29 29 29 29 29 30 29 29
24 25 25 25 25 26 26 26 26 26 25 25 25 24 24 25 25 26 26 27 28 28 28 29 29 29 28 28 28 28 28 28 28 29 28 28 29 29 29 30 30 30 30 30
Wind_Direction
292 290 287 285 284 282 282 282 281 282 279 278 278 277 276 275 273 269 267 264 262 261 261 261 261 259 257 255 254 253 250 248 248 248 248 247 246 246 244 244 244 245 246 248
290 289 287 286 285 283 281 280 281 282 280 279 279 277 277 276 275 272 269 267 265 263 262 262 262 259 256 255 255 253 251 250 248 248 247 246 245 245 245 245 245 246 247 247
291 289 286 286 289 286 283 282 282 282 282 280 278 278 278 278 277 276 273 269 267 265 264 264 262 259 257 255 255 255 253 251 250 248 247 246 246 246 246 246 246 247 248 248
292 290 287 292 290 288 285 284 284 283 282 282 281 279 280 281 280 279 276 272 269 265 264 264 263 261 258 256 256 255 254 253 253 251 249 248 248 247 246 246 246 248 248 249
292 292 292 292 291 290 288 286 286 285 284 284 283 282 282 282 281 281 279 277 273 268 265 264 264 263 260 259 258 256 255 254 254 252 251 250 249 248 247 247 247 247 250 250
291 291 293 295 293 291 289 287 287 286 285 284 284 283 284 283 283 282 281 278 275 270 266 264 264 263 261 260 259 258 257 255 254 253 252 252 251 249 248 248 248 248 250 251
289 289 292 295 293 292 290 291 289 287 286 286 284 284 284 283 283 283 282 279 276 273 268 266 265 263 262 261 260 259 258 257 255 254 253 253 252 251 250 250 250 250 250 251
287 288 292 293 292 291 291 290 289 288 287 286 285 284 283 283 283 283 283 280 277 275 272 268 267 265 263 262 261 260 258 257 256 255 254 254 253 252 252 251 252 252 252 252
288 289 291 290 290 290 289 288 288 287 287 286 286 285 284 283 282 282 283 281 279 278 275 271 268 267 265 262 261 261 259 258 257 256 256 255 255 254 253 253 253 253 253 253
289 290 290 290 289 289 288 288 289 289 288 286 286 286 285 283 282 282 281 281 281 281 279 275 271 268 267 265 262 261 261 259 258 257 256 256 256 255 254 254 254 254 254 254
290 290 288 288 289 289 288 288 289 289 289 288 287 286 285 285 284 282 280 280 281 282 281 277 273 270 268 267 265 262 261 261 259 258 257 255 255 255 254 254 255 255 255 256
292 291 290 291 291 290 289 289 290 291 291 290 288 287 286 286 284 282 280 280 281 281 280 278 275 272 270 269 267 264 262 262 262 260 258 255 255 256 256 255 256 256 257 257
293 293 293 293 294 293 292 291 292 293 292 291 289 288 287 286 285 283 281 281 281 280 277 276 275 273 270 270 268 266 265 264 263 261 260 258 256 256 257 256 256 256 257 257
294 294 295 295 296 295 293 292 292 293 293 291 290 288 288 287 286 284 283 282 281 279 277 275 275 274 272 271 270 269 267 265 264 262 261 260 259 258 257 256 256 257 258 258
295 296 297 298 298 296 294 294 293 294 293 293 292 291 290 289 288 286 285 283 282 280 277 276 276 275 273 272 270 268 267 266 265 264 262 262 260 258 257 257 257 258 258 259
296 297 299 300 299 298 296 295 294 294 294 294 294 293 292 290 289 288 287 285 282 280 278 277 276 275 273 271 270 269 268 268 266 264 263 262 261 260 258 258 258 258 258 258
297 298 299 299 299 299 298 296 295 294 293 294 294 294 293 291 290 290 288 286 283 281 280 277 276 275 273 272 271 270 270 270 269 267 265 265 263 262 261 260 259 258 258 258
297 298 298 299 300 300 299 297 295 294 293 294 294 294 293 292 290 289 288 286 284 282 281 279 277 275 274 273 272 271 271 271 270 269 268 267 265 263 262 262 261 260 259 259
297 298 299 300 300 301 301 300 297 295 294 293 293 293 293 292 290 289 288 287 285 283 282 281 278 276 274 273 273 272 273 272 271 270 268 268 267 265 264 263 263 262 261 260
298 300 300 300 301 302 302 301 299 297 295 294 293 293 293 292 291 289 288 288 287 285 284 281 279 276 275 273 273 274 273 273 272 271 270 269 268 267 265 264 263 262 261 260
300 300 300 300 301 301 301 301 300 298 297 295 294 294 293 292 291 290 290 290 289 288 286 283 280 277 276 275 275 275 275 274 273 272 272 271 269 268 266 265 263 262 261 259
300 301 301 301 301 301 301 301 301 300 299 297 295 294 292 292 291 290 290 290 290 289 287 284 281 279 279 278 278 277 276 275 274 272 271 270 269 267 267 266 264 262 260 259
301 302 303 302 301 301 302 302 302 301 300 299 297 295 293 292 291 290 290 290 289 289 287 284 283 282 281 280 279 279 277 276 275 273 271 269 268 267 266 265 264 262 261 259
302 302 302 302 302 302 303 303 303 302 302 301 300 298 296 294 293 292 291 289 289 288 287 285 285 284 283 282 280 279 278 277 276 274 272 270 269 267 266 265 264 263 261 260
301 302 302 302 303 304 304 304 304 303 303 303 302 301 298 297 295 293 292 290 289 289 288 288 286 285 284 282 280 279 278 277 275 274 273 271 269 267 266 264 263 262 262 261
301 302 302 302 303 304 305 305 305 304 304 304 303 302 300 298 297 295 294 293 291 290 289 289 288 286 285 283 281 279 278 276 275 274 272 271 269 268 266 265 263 262 262 262
301 302 303 303 303 303 304 305 305 304 304 304 303 303 302 301 299 298 297 296 294 293 292 290 288 286 285 283 282 280 278 276 275 274 273 272 270 268 266 265 264 263 262 261
Height
5540 5538 5535 5533 5532 5529 5526 5524 5522 5522 5521 5521 5518 5516 5515 5514 5512 5511 5511 5511 5511 5511 5511 5512 5512 5512 5513 5514 5515 5517 5519 5522 5524 5527 5530 5533 5536 5540 5543 5548 5552 5556 5560 5563
5532 5530 5526 5524 5523 5520 5518 5516 5514 5513 5512 5511 5509 5507 5506 5504 5503 5501 5501 5500 5500 5500 5500 5500 5501 5501 5502 5503 5504 5505 5507 5510 5512 5514 5517 5521 5524 5527 5531 5535 5539 5543 5546 5550
5524 5521 5518 5516 5516 5513 5510 5508 5506 5504 5504 5502 5500 5498 5496 5494 5493 5492 5491 5490 5489 5489 5489 5489 5489 5490 5491 5492 5493 5494 5496 5498 5500 5502 5505 5508 5511 5514 5518 5522 5526 5529 5532 5535
5514 5513 5509 5512 5508 5505 5502 5500 5498 5496 5494 5493 5491 5489 5487 5485 5483 5481 5480 5479 5478 5478 5479 5479 5478 5479 5480 5480 5482 5483 5484 5486 5488 5490 5493 5496 5498 5501 5505 5508 5512 5515 5518 5521
5506 5502 5501 5502 5499 5496 5493 5491 5490 5487 5485 5483 5481 5479 5478 5475 5473 5471 5470 5469 5468 5467 5467 5468 5468 5468 5469 5469 5470 5471 5473 5475 5476 5478 5481 5483 5486 5489 5492 5495 5498 5501 5504 5507
5498 5494 5492 5495 5491 5487 5485 5483 5482 5478 5476 5474 5471 5470 5470 5466 5464 5462 5460 5459 5457 5457 5456 5456 5457 5457 5458 5458 5459 5460 5461 5463 5465 5467 5469 5471 5474 5477 5479 5482 5485 5487 5490 5493
5490 5485 5484 5485 5481 5478 5476 5476 5472 5469 5466 5464 5462 5460 5459 5457 5454 5452 5450 5448 5447 5446 5445 5445 5445 5446 5447 5447 5448 5449 5450 5451 5453 5455 5457 5459 5462 5464 5467 5469 5472 5474 5477 5479
5481 5478 5479 5476 5472 5469 5467 5465 5462 5459 5457 5455 5452 5450 5448 5446 5444 5442 5440 5438 5437 5436 5435 5435 5434 5435 5435 5436 5437 5438 5439 5440 5442 5443 5445 5447 5449 5452 5454 5456 5459 5461 5463 5465
5474 5473 5469 5466 5463 5460 5457 5455 5452 5450 5448 5445 5442 5440 5438 5436 5434 5432 5430 5429 5427 5426 5425 5424 5424 5424 5424 5425 5426 5426 5427 5428 5430 5431 5433 5435 5437 5439 5441 5443 5445 5448 5450 5452
5464 5462 5460 5456 5453 5450 5448 5445 5442 5440 5438 5435 5433 5430 5428 5426 5424 5422 5421 5419 5418 5416 5415 5414 5413 5413 5413 5413 5414 5415 5416 5417 5418 5419 5421 5423 5425 5427 5429 5431 5433 5435 5437 5439
5455 5453 5450 5448 5444 5441 5438 5435 5432 5430 5427 5425 5422 5420 5418 5416 5414 5412 5411 5409 5408 5406 5405 5404 5403 5403 5402 5403 5403 5404 5405 5406 5407 5408 5409 5411 5413 5415 5417 5419 5420 5422 5424 5425
5447 5444 5441 5439 5435 5432 5429 5426 5423 5420 5418 5415 5412 5410 5408 5406 5404 5402 5401 5399 5398 5397 5395 5394 5393 5393 5393 5393 5393 5393 5394 5395 5395 5396 5398 5399 5401 5402 5404 5406 5407 5409 5411 5412
5438 5435 5432 5429 5426 5423 5420 5417 5414 5411 5408 5406 5403 5401 5398 5397 5395 5393 5391 5389 5388 5387 5386 5385 5384 5384 5383 5383 5383 5383 5384 5384 5385 5385 5386 5387 5389 5390 5392 5393 5395 5396 5398 5399
5429 5426 5423 5420 5417 5414 5410 5408 5405 5402 5399 5397 5394 5392 5389 5387 5385 5383 5381 5380 5378 5377 5376 5376 5375 5374 5374 5374 5374 5374 5374 5374 5374 5375 5375 5376 5377 5378 5380 5381 5383 5384 5385 5387
5421 5418 5415 5412 5408 5405 5402 5399 5396 5394 5391 5388 5385 5383 5380 5378 5376 5374 5372 5371 5369 5368 5367 5366 5366 5365 5365 5365 5364 5364 5364 5364 5364 5364 5365 5365 5366 5367 5368 5369 5371 5372 5373 5374
5413 5410 5406 5403 5400 5397 5393 5390 5388 5385 5383 5380 5377 5375 5372 5370 5368 5365 5363 5362 5360 5359 5358 5357 5357 5356 5355 5355 5355 5355 5354 5354 5354 5354 5354 5355 5355 5356 5357 5358 5359 5360 5361 5363
5405 5402 5399 5395 5392 5389 5385 5382 5379 5377 5374 5372 5369 5367 5364 5362 5359 5357 5355 5354 5352 5351 5350 5349 5348 5347 5346 5346 5345 5345 5345 5344 5344 5344 5344 5345 5345 5345 5346 5347 5348 5349 5350 5351
5396 5393 5390 5387 5383 5380 5377 5374 5371 5368 5366 5363 5361 5358 5356 5354 5351 5349 5347 5345 5344 5342 5341 5340 5339 5338 5337 5337 5336 5336 5336 5335 5335 5335 5335 5335 5335 5335 5336 5336 5337 5338 5338 5339
5388 5385 5382 5378 5375 5372 5368 5365 5363 5360 5357 5355 5353 5350 5348 5345 5343 5341 5339 5337 5336 5334 5333 5331 5330 5329 5328 5328 5327 5327 5327 5326 5326 5325 5325 5325 5325 5325 5325 5326 5326 5327 5328 5328
5379 5376 5373 5370 5367 5364 5361 5358 5355 5352 5349 5347 5344 5342 5339 5337 5335 5333 5331 5329 5327 5326 5324 5322 5321 5320 5319 5319 5318 5318 5317 5317 5316 5316 5316 5315 5315 5315 5315 5316 5316 5317 5317 5318
5371 5368 5365 5362 5359 5356 5353 5350 5347 5344 5341 5339 5336 5334 5331 5329 5327 5325 5323 5321 5319 5317 5315 5314 5312 5312 5311 5310 5309 5309 5308 5307 5307 5307 5306 5306 5305 5305 5305 5305 5306 5307 5307 5308
5363 5360 5357 5354 5351 5348 5345 5343 5340 5337 5334 5331 5328 5326 5324 5321 5319 5317 5315 5313 5311 5308 5307 5305 5304 5303 5302 5301 5300 5299 5299 5298 5297 5296 5296 5296 5295 5295 5295 5295 5296 5296 5297 5298
5355 5352 5349 5346 5344 5341 5338 5335 5332 5329 5326 5323 5320 5318 5315 5313 5311 5309 5307 5304 5302 5300 5298 5297 5296 5294 5293 5292 5291 5290 5289 5288 5287 5286 5286 5285 5285 5285 5285 5285 5286 5286 5287 5288
5347 5345 5342 5339 5336 5333 5330 5327 5324 5321 5318 5315 5312 5310 5307 5305 5302 5300 5298 5296 5294 5292 5290 5288 5287 5285 5284 5282 5281 5280 5279 5278 5277 5276 5275 5275 5275 5275 5275 5275 5276 5276 5277 5278
5340 5337 5334 5332 5329 5326 5323 5320 5317 5314 5311 5308 5305 5302 5299 5296 5294 5292 5289 5287 5285 5283 5281 5279 5277 5275 5274 5272 5271 5270 5269 5267 5267 5266 5265 5265 5265 5264 5265 5265 5265 5266 5266 5267
5333 5330 5327 5324 5321 5319 5315 5312 5309 5306 5303 5300 5297 5294 5291 5288 5286 5283 5281 5279 5276 5274 5272 5269 5267 5265 5263 5262 5260 5259 5258 5257 5256 5256 5255 5255 5254 5254 5254 5254 5255 5255 5256 5256
5326 5323 5320 5317 5314 5311 5308 5305 5302 5298 5295 5292 5290 5286 5283 5280 5278 5275 5272 5270 5267 5264 5262 5259 5257 5255 5253 5251 5250 5249 5248 5247 5246 5246 5245 5245 5244 5244 5244 5244 5244 5244 5245 5245